Location: Goettingen
(51.5300°N, 9.9433°E)
Time: 08:13:53
(UTC+02:00)

ISS - Pass Details

Date: 20 May 2018
Orbit: 402 x 407 km, 51.6° (Epoch: 23 May)

Event Time Altitude Azimuth Distance (km) Brightness Sun altitude
Rises 03:11:48 0° 280° (W) 2,320 -0.2 -14.2°
Reaches altitude 10° 03:13:53 10° 279° (W) 1,459 -1.2 -14.1°
Maximum altitude 03:17:09 72° 194° (SSW) 427 -4.0 -13.8°
Drops below altitude 10° 03:20:24 10° 110° (ESE) 1,456 -0.9 -13.6°
Sets 03:22:29 0° 109° (ESE) 2,314 0.2 -13.4°
